Wind_Speed
9 8 7 6 5 5 5 5 6 5 7 7 7 7 6 7 8 7 7 6 6 5 4 3 3 3 3 4 5 5 6 6 6 6 5 5 5 5 5 5 4 4 3 2 2 1 1 1 2
10 9 8 7 6 6 6 6 6 6 7 7 7 6 6 7 8 7 7 6 6 5 4 3 3 2 3 4 4 5 5 5 5 5 5 5 5 5 5 4 4 4 3 2 2 2 2 2 2
11 10 8 8 7 7 6 6 7 7 7 7 6 6 6 7 8 8 7 7 6 5 4 3 2 1 2 3 4 4 4 4 5 5 5 5 5 6 5 5 4 4 3 3 3 2 2 2 2
10 10 9 8 8 8 7 7 7 7 7 7 6 6 6 7 7 8 8 7 6 5 4 3 1 1 1 1 3 3 3 4 4 4 5 5 5 6 6 5 5 4 4 4 3 2 2 2 3
11 10 10 9 9 9 8 7 7 7 6 7 7 7 6 7 7 8 8 7 6 5 4 3 2 1 1 0 1 2 3 3 4 4 4 5 5 6 6 6 6 5 4 4 4 2 2 2 3
11 11 10 10 10 9 8 8 7 7 7 7 7 7 8 8 8 8 8 7 6 5 4 3 3 2 1 1 0 1 2 2 3 3 4 4 5 6 6 6 6 5 5 5 4 3 2 2 2
12 12 12 11 11 10 10 9 8 8 8 8 8 8 9 9 8 8 9 8 7 6 5 4 4 2 2 1 1 1 1 2 2 3 4 4 5 5 6 6 6 5 5 5 4 4 3 3 2
14 13 12 12 12 11 11 11 10 9 10 10 10 9 9 9 8 8 7 7 7 6 5 5 4 3 2 1 1 1 1 1 2 2 3 4 5 5 6 6 6 5 5 5 5 4 3 2 2
13 14 13 13 13 12 12 12 12 10 10 11 11 11 10 10 9 8 7 8 7 6 6 6 5 4 2 2 2 2 1 1 2 2 3 4 5 6 5 5 6 6 6 6 5 4 3 2 2
13 13 14 13 13 14 13 13 12 12 11 11 11 11 11 10 10 9 8 7 6 6 7 6 6 5 4 3 3 2 2 2 2 3 3 4 5 5 5 5 6 5 5 5 4 4 3 3 2
14 14 14 13 13 13 14 14 13 13 12 12 11 11 11 10 10 10 9 8 7 7 7 7 6 6 5 4 3 3 2 3 3 3 3 4 4 4 5 5 6 6 5 5 4 3 2 3 2
14 13 13 13 12 13 14 14 14 13 14 14 13 12 12 11 11 11 10 9 8 8 8 8 7 6 6 4 3 2 2 3 3 3 3 4 4 4 5 5 6 6 6 5 5 4 3 3 3
14 13 13 13 13 13 13 13 14 13 14 14 14 13 13 12 11 10 10 9 9 9 8 8 7 7 6 5 3 3 3 3 3 3 3 4 4 4 5 5 6 6 5 5 4 4 3 3 3
13 13 13 13 13 13 13 13 13 14 14 14 13 13 12 12 12 11 11 10 10 10 9 9 8 7 6 5 4 4 4 4 3 3 3 3 4 4 4 5 6 5 5 5 4 4 3 3 3
12 12 13 14 13 13 13 14 14 14 13 13 13 13 13 12 12 12 11 11 10 10 10 10 9 8 7 6 5 5 5 5 4 4 3 3 4 4 4 5 6 6 5 5 4 4 4 3 3
12 12 13 13 13 13 13 13 14 14 14 13 13 13 12 12 13 13 12 12 11 11 11 11 10 9 8 7 6 6 6 5 5 4 4 4 4 4 4 5 6 6 6 5 5 5 4 4 4
11 11 11 12 12 13 12 12 13 12 12 13 13 13 13 13 13 13 13 13 12 12 12 11 11 10 9 8 7 7 6 6 5 5 5 5 5 5 5 5 5 6 6 5 5 5 4 4 5
11 11 11 11 12 12 12 13 13 14 13 12 13 13 13 13 13 13 13 13 13 13 13 12 11 10 9 9 8 7 7 7 6 6 5 5 5 5 5 5 5 5 6 6 5 4 4 5 5
11 11 11 11 11 12 13 13 14 14 14 14 13 14 14 15 14 14 14 14 14 13 12 11 11 11 10 9 9 8 8 8 8 7 6 5 5 5 5 6 5 5 6 6 5 5 5 5 5
10 10 10 10 11 11 11 12 13 14 14 14 14 14 15 15 15 14 14 14 14 14 13 12 12 12 11 10 9 8 8 8 8 7 7 6 6 6 6 6 6 6 6 6 6 6 6 6 6
9 10 11 11 11 11 11 12 13 13 14 14 14 14 15 15 15 14 14 14 14 14 13 13 12 12 11 10 9 9 9 9 8 8 7 7 7 7 7 6 6 6 6 6 6 7 7 7 7
9 10 11 11 11 11 11 12 13 13 13 13 14 15 15 15 15 15 15 15 14 14 14 13 12 12 12 11 10 10 10 9 9 8 8 8 7 7 7 7 7 7 7 7 7 8 8 8 8
10 10 10 10 11 11 11 12 12 12 13 13 15 15 15 15 15 15 15 15 15 14 14 14 13 13 12 11 11 10 10 10 10 9 9 8 8 8 8 8 8 8 8 8 8 8 8 8 9
10 9 9 9 10 11 11 11 11 12 12 13 13 14 14 15 15 16 16 15 15 14 14 13 13 12 12 11 11 11 10 10 10 10 9 9 9 9 9 9 9 8 9 9 9 9 9 9 10
8 8 8 9 9 9 10 11 11 12 12 12 12 13 14 14 15 16 16 15 14 14 13 13 13 12 11 11 11 11 11 11 11 10 10 10 9 10 10 10 10 10 10 10 10 10 10 11 11
8 9 9 10 9 9 9 10 10 11 11 11 12 13 14 14 14 14 14 15 14 13 13 12 12 12 12 12 11 11 11 11 11 11 10 10 10 11 11 11 11 11 11 11 11 11 11 12 12
8 9 10 11 10 9 9 9 9 10 10 10 10 12 12 13 13 13 13 13 13 13 13 12 12 12 12 12 12 12 12 12 11 11 11 11 12 12 11 11 11 11 11 12 12 12 13 13 13
8 8 9 11 11 10 8 6 7 8 8 9 9 10 11 11 12 13 13 13 13 13 13 13 13 13 13 12 12 12 12 12 11 11 12 12 12 12 12 12 12 12 12 12 13 13 13 14 14
8 8 9 10 11 10 9 8 7 8 9 9 9 10 11 11 12 13 13 13 13 13 13 13 13 13 13 12 13 13 13 12 12 12 12 12 12 12 13 13 12 13 13 14 14 14 15 15 15
9 9 8 9 9 9 9 8 8 8 9 9 10 10 11 12 13 13 13 13 13 13 13 13 14 14 13 13 14 14 13 13 13 13 13 13 13 13 13 14 14 14 14 14 14 15 15 15 15
Wind_Direction
213 208 206 205 201 200 199 196 177 179 176 174 173 171 171 171 169 164 156 154 148 139 136 122 112 88 70 60 55 49 48 53 54 51 48 48 45 40 35 32 35 34 33 28 19 349 278 234 214
217 212 210 212 213 214 210 208 197 191 184 180 175 177 175 172 175 173 168 163 151 143 140 126 114 82 66 62 51 45 47 47 45 43 43 42 40 35 29 32 33 30 24 15 359 333 295 260 235
212 210 210 208 213 216 219 215 200 189 190 185 181 184 183 177 178 177 175 173 160 153 150 141 112 79 64 56 45 41 42 41 37 37 37 37 34 32 29 30 27 23 17 9 357 336 306 273 234
208 209 212 212 215 219 220 214 194 193 193 195 193 192 187 182 183 180 175 176 173 163 162 169 168 168 58 56 38 30 37 37 32 31 29 30 30 28 25 23 19 13 10 2 353 340 317 284 245
214 215 216 219 222 222 219 205 198 199 198 202 199 193 184 183 183 184 184 184 183 183 182 192 216 224 242 26 18 31 38 37 30 25 24 25 21 17 17 20 14 7 2 359 355 344 313 282 254
224 223 223 223 222 220 219 213 210 208 204 203 200 196 190 188 187 193 192 186 187 191 198 209 207 211 229 277 10 35 36 28 27 20 15 16 14 12 14 16 11 4 3 2 357 347 321 295 257
226 227 226 225 224 220 218 215 214 210 206 201 201 202 198 195 197 201 200 197 194 200 207 216 220 220 238 243 268 333 7 7 15 16 12 8 7 9 9 11 9 3 0 358 351 346 329 306 279
228 229 229 227 225 223 222 220 216 212 209 207 206 207 206 205 207 205 205 203 202 209 215 216 225 229 240 253 253 285 325 344 358 3 6 2 0 3 5 9 7 359 357 355 349 341 338 323 298
228 229 229 228 227 226 224 223 217 215 212 212 212 211 211 209 209 210 211 211 212 219 220 216 221 229 245 265 271 271 290 320 342 352 354 350 353 359 1 5 3 0 357 353 348 348 334 328 321
226 227 228 227 227 226 224 223 219 215 210 212 213 214 212 209 208 210 216 218 218 222 223 218 222 230 246 265 270 276 278 290 309 328 334 338 343 350 356 357 357 0 357 356 357 0 356 342 321
228 229 228 228 227 225 223 222 221 220 215 214 212 213 213 213 212 215 219 221 227 230 226 224 227 231 240 259 268 271 272 278 291 300 316 331 339 348 355 357 359 1 357 354 1 3 348 331 317
228 229 228 227 225 223 220 219 221 223 220 216 215 216 218 220 221 220 220 223 227 227 227 226 231 233 238 250 263 276 268 278 288 293 309 327 335 340 345 349 352 354 359 357 356 359 344 338 333
228 226 226 226 226 221 217 218 218 222 223 218 216 217 217 219 222 225 226 228 228 226 229 226 231 234 235 241 258 276 272 271 281 287 300 321 333 338 343 345 346 351 358 357 357 358 358 341 332
228 225 224 223 221 218 220 217 215 218 221 219 218 218 219 221 224 227 227 229 228 227 230 231 229 233 238 245 253 266 271 271 270 278 291 310 326 337 342 345 351 356 357 355 353 349 344 341 338
224 223 223 223 222 221 223 219 218 219 219 220 222 223 224 225 228 229 228 230 231 233 233 232 231 236 242 248 253 261 270 269 266 273 284 301 314 323 337 342 347 351 350 351 347 341 334 330 330
219 220 221 222 222 224 222 223 219 220 221 223 223 222 225 228 231 231 230 231 233 234 236 234 235 238 243 246 252 263 270 268 267 271 279 290 306 306 323 331 338 343 344 342 339 338 332 324 322
216 218 222 224 224 226 227 228 223 221 223 225 225 226 228 229 231 233 232 233 233 235 237 237 235 240 245 250 257 265 268 267 265 270 275 283 295 301 308 317 326 332 334 333 334 335 330 325 321
215 220 223 226 224 226 228 229 231 231 230 230 231 232 232 232 232 234 234 234 236 236 237 236 234 241 247 253 260 267 266 263 261 266 272 279 286 294 300 306 314 321 324 327 326 330 332 330 326
215 220 224 225 224 225 228 232 232 234 235 233 235 236 234 234 234 234 234 236 237 236 235 233 235 242 248 254 260 267 264 260 258 259 269 277 282 287 296 298 305 311 314 317 316 319 325 326 325
218 217 222 224 223 225 232 235 235 239 238 238 238 237 233 235 235 235 236 236 237 237 235 237 240 244 249 253 259 266 267 260 257 261 266 272 281 290 299 296 296 302 304 305 307 311 314 314 314
217 217 223 228 230 232 235 237 241 243 243 239 237 238 237 238 237 237 237 236 238 237 236 238 241 246 249 255 259 261 263 262 255 259 264 270 279 288 297 300 297 299 297 298 300 304 304 303 304
222 222 226 229 232 234 238 239 242 247 246 241 239 238 237 236 238 237 238 240 240 239 238 239 242 246 250 253 255 257 259 256 254 256 260 267 276 283 289 292 295 295 293 297 299 300 301 300 301
225 228 230 233 235 241 245 246 240 243 246 243 237 235 236 236 239 240 239 240 238 240 241 242 244 248 251 252 251 254 255 254 254 253 258 265 270 277 281 284 290 293 295 297 297 299 299 298 299
229 229 232 236 238 241 242 246 238 243 244 242 236 235 237 240 241 241 239 238 238 240 242 244 247 250 252 251 250 250 252 253 255 254 258 262 265 270 276 281 285 290 294 296 296 297 298 299 299
229 230 235 238 242 253 249 249 246 243 244 240 240 239 240 240 240 240 239 238 238 239 242 245 248 251 252 253 251 251 252 254 255 256 258 261 265 270 275 280 282 287 292 292 292 295 298 299 299
237 235 238 245 252 255 253 254 248 244 244 242 244 243 242 241 238 236 236 236 237 239 242 245 248 249 250 251 253 253 254 255 256 256 257 260 265 271 275 279 283 284 287 290 292 294 298 299 300
236 238 238 245 249 253 257 253 251 244 243 245 247 243 243 242 235 234 235 235 236 240 243 246 247 249 250 251 252 254 256 256 256 257 259 264 269 272 276 279 282 285 286 289 293 294 295 297 298
240 240 238 243 247 252 256 250 245 244 246 246 247 243 240 240 235 235 236 236 237 240 242 244 247 248 250 251 254 255 255 255 255 259 264 267 270 275 278 278 282 283 285 288 292 294 295 297 297
237 239 243 246 245 248 249 248 247 247 247 246 246 244 241 236 233 233 234 236 237 239 241 244 248 249 251 253 255 255 255 256 257 264 267 271 276 277 276 279 283 284 286 289 291 292 294 295 295
241 245 247 247 246 245 249 251 247 251 251 248 247 245 240 238 237 235 234 237 239 242 243 246 249 250 252 254 255 255 256 257 261 264 268 271 272 274 278 280 282 284 287 289 291 292 294 293 293
Height
5891 5892 5894 5896 5898 5898 5898 5899 5899 5899 5900 5900 5901 5901 5902 5903 5905 5907 5905 5904 5904 5904 5904 5904 5903 5903 5903 5902 5902 5901 5900 5900 5899 5898 5897 5896 5895 5895 5894 5893 5892 5891 5890 5889 5889 5888 5888 5888 5888
5888 5892 5894 5896 5897 5898 5898 5898 5898 5899 5899 5900 5900 5901 5902 5902 5903 5904 5904 5904 5904 5904 5904 5904 5904 5904 5903 5903 5902 5901 5901 5900 5899 5898 5898 5897 5896 5895 5893 5892 5892 5890 5890 5889 5888 5888 5887 5887 5887
5887 5891 5894 5895 5896 5897 5897 5897 5897 5898 5899 5899 5900 5901 5902 5902 5903 5903 5904 5904 5904 5904 5904 5904 5904 5904 5904 5903 5903 5902 5901 5901 5900 5899 5898 5897 5896 5895 5894 5892 5891 5890 5889 5889 5888 5887 5887 5886 5886
5888 5891 5893 5895 5895 5895 5896 5897 5897 5898 5898 5899 5900 5900 5901 5902 5902 5903 5903 5904 5904 5904 5904 5904 5904 5904 5904 5903 5903 5902 5902 5901 5900 5899 5898 5897 5896 5895 5894 5892 5891 5890 5889 5888 5887 5887 5886 5886 5885
5888 5890 5892 5892 5893 5894 5895 5896 5896 5897 5898 5898 5899 5900 5900 5901 5901 5902 5903 5903 5904 5904 5904 5904 5904 5904 5904 5903 5903 5903 5902 5901 5900 5899 5898 5897 5896 5895 5894 5892 5891 5890 5889 5888 5887 5886 5885 5885 5885
5887 5888 5890 5891 5892 5893 5894 5895 5896 5896 5897 5898 5899 5899 5899 5900 5900 5901 5902 5902 5903 5903 5904 5904 5904 5904 5904 5903 5903 5902 5902 5901 5900 5900 5899 5897 5896 5895 5894 5893 5891 5890 5889 5888 5886 5886 5885 5884 5884
5885 5887 5888 5889 5890 5891 5893 5893 5894 5895 5896 5897 5898 5898 5899 5899 5900 5900 5901 5902 5902 5903 5903 5903 5903 5903 5903 5903 5903 5902 5902 5901 5900 5900 5899 5897 5896 5895 5894 5893 5891 5890 5889 5887 5886 5885 5884 5884 5883
5882 5885 5886 5887 5888 5890 5891 5892 5893 5894 5895 5896 5897 5897 5898 5899 5899 5900 5900 5901 5902 5902 5902 5903 5903 5903 5903 5903 5903 5902 5902 5901 5900 5899 5898 5897 5896 5895 5894 5893 5891 5890 5888 5887 5886 5885 5884 5883 5883
5880 5884 5884 5885 5887 5888 5889 5890 5891 5892 5893 5894 5895 5896 5897 5898 5898 5899 5900 5900 5901 5901 5902 5902 5902 5903 5902 5902 5902 5902 5901 5901 5900 5899 5898 5897 5896 5895 5894 5892 5891 5890 5888 5887 5885 5884 5883 5883 5882
5878 5880 5882 5883 5884 5885 5886 5888 5889 5890 5891 5892 5894 5895 5896 5896 5897 5898 5899 5900 5900 5901 5901 5901 5902 5902 5902 5902 5902 5901 5901 5900 5900 5899 5898 5897 5896 5895 5893 5892 5891 5889 5888 5886 5885 5884 5883 5882 5882
5875 5877 5879 5880 5882 5883 5884 5886 5887 5888 5890 5891 5892 5893 5894 5895 5896 5897 5898 5899 5899 5900 5900 5900 5901 5901 5901 5901 5901 5901 5900 5900 5899 5899 5898 5897 5895 5894 5893 5892 5891 5889 5888 5886 5884 5883 5883 5882 5881
5873 5875 5876 5878 5879 5880 5882 5883 5885 5886 5888 5889 5890 5891 5892 5894 5895 5896 5897 5897 5898 5898 5899 5900 5900 5900 5901 5901 5900 5900 5900 5899 5899 5898 5897 5896 5895 5894 5893 5892 5890 5889 5888 5886 5885 5884 5883 5882 5881
5870 5872 5874 5876 5877 5878 5879 5881 5882 5884 5885 5886 5888 5889 5891 5892 5893 5894 5895 5896 5897 5897 5898 5898 5899 5899 5900 5900 5900 5899 5899 5899 5898 5897 5897 5896 5895 5894 5893 5892 5890 5889 5887 5886 5885 5884 5883 5882 5881
5868 5870 5871 5873 5874 5876 5877 5879 5881 5882 5883 5885 5886 5888 5889 5890 5891 5892 5894 5895 5895 5896 5897 5897 5898 5898 5898 5899 5899 5899 5898 5898 5897 5897 5896 5895 5894 5893 5892 5891 5890 5889 5887 5886 5885 5884 5883 5882 5881
5866 5868 5870 5871 5872 5874 5876 5877 5878 5880 5881 5883 5885 5886 5887 5888 5890 5891 5892 5893 5894 5895 5895 5896 5896 5897 5897 5898 5898 5897 5897 5897 5896 5896 5895 5895 5894 5893 5892 5891 5890 5888 5887 5886 5885 5884 5883 5882 5881
5864 5866 5868 5869 5870 5872 5875 5876 5877 5878 5880 5881 5883 5884 5886 5887 5888 5889 5890 5891 5892 5893 5893 5894 5895 5896 5896 5896 5896 5896 5896 5896 5895 5895 5894 5894 5893 5892 5891 5890 5889 5888 5887 5885 5884 5883 5882 5881 5881
5863 5864 5866 5867 5868 5870 5872 5874 5875 5876 5878 5879 5881 5882 5883 5885 5886 5887 5888 5889 5890 5891 5892 5892 5893 5894 5894 5895 5895 5895 5894 5894 5894 5894 5893 5892 5892 5891 5890 5889 5888 5887 5886 5885 5884 5883 5882 5881 5880
5861 5863 5864 5866 5867 5869 5870 5872 5873 5874 5876 5877 5878 5880 5881 5882 5884 5885 5886 5887 5888 5889 5890 5890 5891 5892 5893 5893 5893 5893 5893 5893 5892 5892 5892 5891 5891 5890 5889 5888 5887 5886 5885 5884 5883 5882 5881 5880 5879
5860 5861 5863 5864 5865 5867 5868 5869 5870 5872 5873 5875 5876 5878 5879 5880 5881 5882 5884 5885 5886 5886 5887 5889 5890 5890 5891 5891 5891 5891 5891 5891 5891 5891 5890 5890 5889 5889 5888 5887 5886 5885 5885 5884 5882 5882 5881 5880 5878
5858 5859 5861 5862 5863 5865 5866 5867 5868 5869 5871 5872 5874 5875 5876 5878 5879 5880 5881 5882 5883 5884 5886 5887 5888 5888 5889 5889 5889 5889 5889 5889 5889 5889 5889 5889 5888 5887 5887 5886 5885 5884 5884 5883 5882 5881 5880 5879 5878
5856 5858 5859 5860 5862 5863 5865 5866 5867 5867 5868 5870 5871 5872 5874 5875 5877 5878 5879 5880 5881 5882 5883 5884 5885 5886 5886 5887 5887 5887 5887 5887 5887 5887 5887 5887 5887 5886 5886 5885 5884 5883 5882 5881 5880 5880 5878 5877 5876
5855 5856 5857 5858 5860 5861 5863 5864 5865 5865 5866 5867 5868 5869 5871 5872 5874 5875 5876 5877 5878 5880 5881 5882 5883 5883 5884 5884 5885 5885 5885 5886 5886 5885 5885 5885 5885 5885 5884 5883 5883 5882 5881 5880 5879 5878 5877 5876 5874
5853 5854 5856 5857 5858 5859 5860 5861 5863 5862 5863 5864 5865 5866 5868 5869 5871 5872 5873 5875 5876 5877 5878 5879 5880 5881 5881 5882 5882 5883 5883 5883 5883 5883 5883 5883 5883 5883 5882 5881 5881 5880 5879 5878 5877 5876 5875 5874 5873
5851 5853 5854 5855 5856 5858 5858 5859 5861 5860 5861 5861 5862 5863 5865 5866 5867 5869 5870 5872 5873 5874 5875 5876 5877 5878 5879 5879 5880 5880 5881 5881 5881 5881 5881 5881 5881 5880 5880 5879 5878 5878 5877 5876 5875 5874 5873 5872 5871
5851 5852 5853 5854 5854 5855 5856 5856 5858 5858 5858 5859 5860 5861 5862 5863 5864 5866 5867 5869 5870 5872 5873 5874 5875 5876 5876 5877 5877 5878 5878 5878 5878 5878 5878 5878 5878 5878 5877 5877 5876 5876 5875 5874 5873 5872 5871 5870 5869
5849 5851 5852 5853 5853 5853 5853 5854 5855 5855 5855 5856 5857 5858 5859 5860 5861 5862 5864 5866 5867 5869 5870 5871 5872 5873 5873 5874 5875 5875 5875 5875 5875 5876 5876 5876 5875 5875 5875 5874 5874 5873 5872 5871 5871 5869 5868 5867 5866
5847 5848 5850 5850 5850 5851 5851 5852 5853 5852 5853 5853 5854 5855 5856 5857 5858 5860 5861 5863 5864 5866 5867 5868 5869 5870 5871 5871 5872 5872 5872 5872 5872 5873 5873 5873 5872 5872 5872 5871 5871 5870 5869 5869 5868 5866 5865 5864 5863
5846 5846 5847 5848 5848 5849 5850 5850 5851 5850 5851 5851 5852 5853 5853 5854 5856 5857 5859 5860 5861 5863 5864 5865 5866 5867 5868 5868 5869 5869 5869 5869 5870 5870 5870 5870 5869 5869 5869 5868 5868 5867 5866 5865 5864 5863 5862 5861 5859
5844 5844 5845 5845 5846 5847 5847 5850 5848 5848 5848 5849 5849 5850 5851 5852 5853 5854 5856 5857 5858 5860 5861 5862 5863 5864 5864 5865 5865 5866 5866 5866 5867 5867 5867 5866 5866 5866 5865 5865 5864 5863 5863 5862 5861 5859 5858 5857 5856
5841 5842 5843 5844 5844 5844 5845 5849 5846 5845 5846 5846 5847 5847 5848 5849 5850 5852 5853 5854 5855 5857 5858 5859 5860 5861 5861 5862 5862 5862 5863 5863 5863 5863 5863 5863 5863 5862 5862 5861 5860 5860 5859 5858 5857 5855 5854 5853 5852